Location: Glendo
(42.5037°N, 105.0248°W)
Time: 07:48:23
(UTC+00:00)

Envisat - Pass Details

Date: 30 January 2022
Orbit: 764 x 765 km, 98.2° (Epoch: 22 May)

Event Time Altitude Azimuth Distance (km) Brightness Sun altitude
Rises 13:29:40 0° 355° (N) 3,240 6.0 -8.9°
Reaches altitude 10° 13:33:02 10° 331° (NNW) 2,309 5.1 -8.3°
Maximum altitude 13:35:37 14° 300° (WNW) 2,026 4.6 -7.8°
Drops below altitude 10° 13:38:12 10° 269° (W) 2,302 4.9 -7.4°
Sets 13:41:33 0° 246° (WSW) 3,224 5.8 -6.8°
